Regional Weather Roundup
Issued by NWS Jackson, KY

Home | Current Version | Previous Version | Graphics & Text | Print | Product List | Glossary On
Versions: 1 2 3 4 5 6 7 8 9 10 11 12 13 14 15 16 17 18 19 20 21 22 23 24 25 26 27 28 29 30 31 32 33 34 35 36 37 38 39 40 41 42 43 44 45 46 47 48 49 50
000
ASUS43 KJKL 161310
RWRJKL

EAST KENTUCKY HOURLY WEATHER ROUNDUP
NATIONAL WEATHER SERVICE JACKSON KY
900 AM EDT WED AUG 16 2017

NOTE: "FAIR" INDICATES FEW OR NO CLOUDS BELOW 12,000 FEET WITH
NO SIGNIFICANT WEATHER AND/OR OBSTRUCTIONS TO VISIBILITY.

* THESE REPORTS ARE NOT UNDER NWS QUALITY CONTROL AND MAY NOT
  REPORT WEATHER SUCH AS PRECIPITATION AND FOG.

KYZ079-080-083-085-087-088-110-112-115-119-120-161400
...EASTERN KENTUCKY...

CITY           SKY/WX    TMP DP  RH WIND       PRES   REMARKS
JACKSON        FOG       71  70  96 CALM      30.10R VSB 1/4
LONDON         CLOUDY    70  69  97 CALM      30.09R
SOMERSET*      CLOUDY    70  70 100 CALM      30.09S FOG
MONTICELLO*    CLOUDY    73  72  96 W8        30.10R
WILLIAMSBURG*  CLOUDY    70  70 100 CALM      30.10R VSB<1/4
MIDDLESBORO*   CLOUDY    70  70 100 CALM      30.11S
HARLAN APT*    CLOUDY    68  68 100 CALM      30.12S VSB 3/4
PIKE CO APT*   FOG       70  70 100 CALM      30.11R VSB<1/4
BIG SANDY APT* FOG       71  71 100 CALM      30.10R VSB 1/4
MOREHEAD APT*  SUNNY     73  72  94 CALM      30.09S
$$

KYZ035-036-041-042-044-050-067-078-099-161400
...CENTRAL KENTUCKY...

CITY           SKY/WX    TMP DP  RH WIND       PRES   REMARKS
MT STERLING*   MOSUNNY   73  72  94 CALM      30.09R
FLEMING/MASON* MOSUNNY   73  72  96 CALM      30.08S FOG
DANVILLE*      CLOUDY    72  72 100 CALM      30.08S
LEXINGTON      CLOUDY    74  71  91 SE3       30.07R
FRANKFORT      PTSUNNY   73  70  90 SE3       30.04S FOG
LOUISVILLE     PTSUNNY   78  72  81 CALM      30.03R HAZE
LEBANON*         N/A     75  73  94 S3        30.06R
GLASGOW*       MOSUNNY   76  72  87 CALM      30.05R
BOWLING GREEN  PTSUNNY   78  72  81 S8        30.04R
$$

KYZ091>093-OHZ055-061-077-WVZ005-015-034-035-042-161400
...SOUTHERN OHIO/WEST VIRGINIA...

CITY           SKY/WX    TMP DP  RH WIND       PRES   REMARKS
COVINGTON      MOSUNNY   76  71  85 CALM      30.04S
COLUMBUS       MOSUNNY   74  71  91 CALM      30.05R
DAYTON         MOSUNNY   75  69  81 S5        30.06R
WILMINGTON     SUNNY     75  72  90 CALM      30.05S
HUNTINGTON     PTSUNNY   72  70  93 CALM      30.07R FOG
CHARLESTON     FOG       70  69  97 CALM      30.08R VSB 1/4
PINEVILLE*     FOG       69  68  97 MISG      30.18R VSB 3/4
BECKLEY        MOSUNNY   70  68  93 CALM      30.16R
BLUEFIELD      PTSUNNY   71  66  84 N3        30.18S
LOGAN CO APT*  FOG       70  70 100 CALM      30.12R VSB<1/4
$$

VAZ002-007-008-TNZ017-027-036-066-071-161400
...SOUTHWEST VIRGINIA/EAST TENNESSEE...

CITY           SKY/WX    TMP DP  RH WIND       PRES   REMARKS
WISE*          PTSUNNY   72  72 100 CALM      30.19R
JONESVILLE*      N/A     72  70  94 CALM      30.14R FOG
ABINGDON*      CLOUDY    73  73 100 CALM      30.15R
BRISTOL        MOSUNNY   72  71  97 SE3       30.12R
MORRISTOWN*    CLOUDY    75  73  94 W6        30.10R FOG
SEVIERVILLE*   SUNNY     75  68  78 CALM      30.09S
KNOXVILLE      MOSUNNY   75  70  84 SW6       30.09R
LAFOLLETTE*    FOG       72  70  94 CALM      30.13S VSB 1/2
OAK RIDGE      MOSUNNY   75  70  84 CALM      30.10R
CROSSVILLE     CLOUDY    71  69  93 S5        30.14R
NASHVILLE      PTSUNNY   75  72  90 S8        30.06F
$$

...KEY TO REMARKS...
VSB - VISIBILITY IN MILES
WCI - WIND CHILL INDEX
HX  - HEAT INDEX

$$



USA.gov is the U.S. government's official web portal to all federal, state and local government web resources and services.